• Em Portugal
  • Lista de países
  • Para 7 dias
  • Temperatura da água
  • Mapas de satélite
  • Mapa do tempo
  • Widgets de tempo
  • user-avatar
    Iniciar Sessão

    Previsão horária em Pinsk

    Hoje, 16 Outubro, Terça-feira

    Tempo Temperatura Precipitação Vento Pressão Humidade
    00:00 +11°C° 0 mm 3 m/s 757 mmHg 69%
    01:00 +10°C° 0 mm 3 m/s 757 mmHg 69%
    02:00 +10°C° 0 mm 2 m/s 757 mmHg 70%
    03:00 +9°C° 0 mm 2 m/s 757 mmHg 71%
    04:00 +9°C° 0 mm 2 m/s 756 mmHg 71%
    05:00 +9°C° 0 mm 2 m/s 756 mmHg 72%
    06:00 +9°C° 0 mm 2 m/s 756 mmHg 72%
    07:00 +10°C° 0 mm 2 m/s 756 mmHg 71%
    08:00 +10°C° 0 mm 3 m/s 756 mmHg 71%
    09:00 +12°C° 0 mm 3 m/s 756 mmHg 65%
    10:00 +14°C° 0 mm 3 m/s 756 mmHg 58%
    11:00 +18°C° 0 mm 3 m/s 756 mmHg 52%
    12:00 +19°C° 0 mm 3 m/s 756 mmHg 49%
    13:00 +20°C° 0 mm 3 m/s 756 mmHg 46%
    14:00 +21°C° 0 mm 3 m/s 756 mmHg 43%
    15:00 +20°C° 0 mm 3 m/s 756 mmHg 48%
    16:00 +18°C° 0 mm 2 m/s 756 mmHg 53%
    17:00 +17°C° 0 mm 2 m/s 756 mmHg 58%
    18:00 +16°C° 0 mm 2 m/s 756 mmHg 62%
    19:00 +15°C° 0 mm 2 m/s 756 mmHg 66%
    20:00 +14°C° 0 mm 2 m/s 756 mmHg 70%
    21:00 +13°C° 0 mm 2 m/s 756 mmHg 72%
    22:00 +13°C° 0 mm 2 m/s 756 mmHg 75%
    23:00 +12°C° 0 mm 2 m/s 756 mmHg 77%

    Amanhã, 17 Outubro, Quarta-feira

    Tempo Temperatura Precipitação Vento Pressão Humidade
    00:00 +12°C° 0 mm 2 m/s 756 mmHg 78%
    01:00 +12°C° 0 mm 2 m/s 756 mmHg 79%
    02:00 +10°C° 0 mm 2 m/s 756 mmHg 80%
    03:00 +10°C° 0 mm 2 m/s 756 mmHg 80%
    04:00 +10°C° 0 mm 2 m/s 756 mmHg 81%
    05:00 +9°C° 0 mm 2 m/s 756 mmHg 82%
    06:00 +10°C° 0 mm 2 m/s 756 mmHg 80%
    07:00 +10°C° 0 mm 2 m/s 756 mmHg 79%
    08:00 +10°C° 0 mm 2 m/s 756 mmHg 77%
    09:00 +14°C° 0 mm 2 m/s 756 mmHg 69%
    10:00 +16°C° 0 mm 2 m/s 756 mmHg 61%
    11:00 +18°C° 0 mm 2 m/s 756 mmHg 52%
    12:00 +19°C° 0 mm 2 m/s 756 mmHg 50%
    13:00 +21°C° 0 mm 2 m/s 756 mmHg 47%
    14:00 +23°C° 0 mm 2 m/s 755 mmHg 44%
    15:00 +20°C° 0 mm 2 m/s 755 mmHg 49%
    16:00 +19°C° 0 mm 2 m/s 755 mmHg 54%
    17:00 +18°C° 0 mm 2 m/s 755 mmHg 59%
    18:00 +17°C° 0 mm 2 m/s 755 mmHg 63%
    19:00 +16°C° 0 mm 2 m/s 755 mmHg 67%
    20:00 +15°C° 0 mm 2 m/s 755 mmHg 71%
    21:00 +15°C° 0 mm 2 m/s 755 mmHg 74%
    22:00 +14°C° 0 mm 2 m/s 755 mmHg 78%
    23:00 +14°C° 0 mm 2 m/s 755 mmHg 82%

    Depois de amanhã, 18 Outubro, Quinta-feira

    Tempo Temperatura Precipitação Vento Pressão Humidade
    00:00 +13°C° 0 mm 2 m/s 755 mmHg 84%
    01:00 +13°C° 0 mm 2 m/s 755 mmHg 86%
    02:00 +13°C° 0 mm 2 m/s 755 mmHg 88%
    03:00 +13°C° 0 mm 2 m/s 754 mmHg 88%
    04:00 +12°C° 0 mm 2 m/s 754 mmHg 89%
    05:00 +12°C° 0 mm 2 m/s 754 mmHg 89%
    06:00 +12°C° 0 mm 2 m/s 754 mmHg 88%
    07:00 +12°C° 0 mm 2 m/s 754 mmHg 86%
    08:00 +13°C° 0 mm 2 m/s 754 mmHg 84%
    09:00 +15°C° 0 mm 2 m/s 754 mmHg 75%
    10:00 +17°C° 0 mm 2 m/s 754 mmHg 65%
    11:00 +19°C° 0 mm 3 m/s 753 mmHg 56%
    12:00 +20°C° 0 mm 3 m/s 753 mmHg 52%
    13:00 +21°C° 0 mm 3 m/s 753 mmHg 48%
    14:00 +22°C° 0 mm 3 m/s 753 mmHg 44%
    15:00 +20°C° 0 mm 2 m/s 752 mmHg 49%
    16:00 +19°C° 0 mm 2 m/s 752 mmHg 53%
    17:00 +17°C° 0 mm 2 m/s 752 mmHg 58%
    18:00 +16°C° 0 mm 2 m/s 752 mmHg 61%
    19:00 +15°C° 0 mm 2 m/s 752 mmHg 64%
    20:00 +14°C° 0 mm 2 m/s 752 mmHg 67%
    21:00 +14°C° 0 mm 2 m/s 752 mmHg 69%
    22:00 +13°C° 0 mm 2 m/s 752 mmHg 72%
    23:00 +13°C° 0 mm 2 m/s 752 mmHg 74%

    19 Outubro, Sexta-feira

    Tempo Temperatura Precipitação Vento Pressão Humidade
    00:00 +12°C° 0 mm 1 m/s 752 mmHg 76%
    01:00 +12°C° 0 mm 1 m/s 752 mmHg 78%
    02:00 +12°C° 0 mm 1 m/s 752 mmHg 81%
    03:00 +11°C° 0 mm 1 m/s 751 mmHg 82%
    04:00 +11°C° 0 mm 1 m/s 751 mmHg 84%
    05:00 +11°C° 0 mm 1 m/s 751 mmHg 86%
    06:00 +11°C° 0 mm 1 m/s 751 mmHg 85%
    07:00 +11°C° 0 mm 1 m/s 751 mmHg 84%
    08:00 +12°C° 0 mm 1 m/s 751 mmHg 83%
    09:00 +13°C° 0 mm 1 m/s 751 mmHg 76%
    10:00 +15°C° 0 mm 1 m/s 751 mmHg 68%
    11:00 +18°C° 0 mm 1 m/s 751 mmHg 61%
    12:00 +18°C° 0 mm 2 m/s 751 mmHg 59%
    13:00 +18°C° 0 mm 2 m/s 751 mmHg 56%
    14:00 +19°C° 0 mm 2 m/s 751 mmHg 54%
    15:00 +18°C° 0 mm 2 m/s 751 mmHg 59%
    16:00 +17°C° 0 mm 2 m/s 751 mmHg 64%
    17:00 +16°C° 0 mm 2 m/s 751 mmHg 69%
    18:00 +15°C° 0 mm 2 m/s 751 mmHg 71%
    19:00 +14°C° 0 mm 2 m/s 751 mmHg 74%
    20:00 +13°C° 0 mm 2 m/s 751 mmHg 77%
    21:00 +13°C° 0 mm 2 m/s 751 mmHg 79%
    22:00 +13°C° 0 mm 2 m/s 751 mmHg 81%
    23:00 +12°C° 0 mm 2 m/s 751 mmHg 83%

    20 Outubro, Sábado

    Tempo Temperatura Precipitação Vento Pressão Humidade
    00:00 +12°C° 0 mm 2 m/s 751 mmHg 85%
    01:00 +10°C° 0 mm 2 m/s 752 mmHg 88%
    02:00 +10°C° 0 mm 2 m/s 752 mmHg 91%
    03:00 +9°C° 0 mm 2 m/s 751 mmHg 92%
    04:00 +9°C° 0 mm 2 m/s 751 mmHg 93%
    05:00 +9°C° 0 mm 2 m/s 751 mmHg 94%
    06:00 +9°C° 0 mm 2 m/s 752 mmHg 94%
    07:00 +9°C° 0 mm 2 m/s 752 mmHg 93%
    08:00 +9°C° 0 mm 2 m/s 752 mmHg 93%
    09:00 +12°C° 0 mm 2 m/s 752 mmHg 86%
    10:00 +13°C° 0 mm 2 m/s 752 mmHg 79%
    11:00 +15°C° 0 mm 2 m/s 752 mmHg 72%
    12:00 +14°C° 0 mm 3 m/s 752 mmHg 71%
    13:00 +14°C° 0 mm 3 m/s 752 mmHg 69%
    14:00 +14°C° 0 mm 3 m/s 752 mmHg 68%
    15:00 +14°C° 0 mm 3 m/s 752 mmHg 72%
    16:00 +13°C° 0 mm 3 m/s 752 mmHg 76%
    17:00 +13°C° 0 mm 2 m/s 751 mmHg 80%
    18:00 +13°C° 0.2 mm 2 m/s 752 mmHg 82%
    19:00 +12°C° 0.2 mm 2 m/s 752 mmHg 84%
    20:00 +11°C° 0.2 mm 3 m/s 752 mmHg 87%
    21:00 +10°C° 0.4 mm 3 m/s 752 mmHg 87%
    22:00 +10°C° 0.4 mm 3 m/s 752 mmHg 87%
    23:00 +10°C° 0.4 mm 3 m/s 752 mmHg 88%

    21 Outubro, Domingo

    Tempo Temperatura Precipitação Vento Pressão Humidade
    00:00 +9°C° 0.4 mm 3 m/s 751 mmHg 87%
    01:00 +9°C° 0.4 mm 3 m/s 751 mmHg 87%
    02:00 +8°C° 0.4 mm 3 m/s 751 mmHg 87%
    03:00 +8°C° 0.2 mm 3 m/s 751 mmHg 87%
    04:00 +7°C° 0.2 mm 3 m/s 751 mmHg 87%
    05:00 +7°C° 0.2 mm 3 m/s 751 mmHg 87%
    06:00 +7°C° 0 mm 3 m/s 751 mmHg 86%
    07:00 +7°C° 0 mm 3 m/s 752 mmHg 85%
    08:00 +7°C° 0 mm 3 m/s 752 mmHg 84%
    09:00 +8°C° 0 mm 3 m/s 752 mmHg 77%
    10:00 +9°C° 0 mm 3 m/s 752 mmHg 71%
    11:00 +10°C° 0 mm 3 m/s 752 mmHg 65%
    12:00 +11°C° 0 mm 3 m/s 752 mmHg 61%
    13:00 +11°C° 0 mm 3 m/s 752 mmHg 57%
    14:00 +12°C° 0 mm 3 m/s 752 mmHg 53%
    15:00 +11°C° 0 mm 3 m/s 752 mmHg 56%
    16:00 +10°C° 0 mm 3 m/s 752 mmHg 60%
    17:00 +9°C° 0 mm 2 m/s 752 mmHg 63%
    18:00 +8°C° 0 mm 2 m/s 752 mmHg 66%
    19:00 +7°C° 0 mm 2 m/s 753 mmHg 70%
    20:00 +6°C° 0 mm 2 m/s 753 mmHg 73%
    21:00 +6°C° 0 mm 2 m/s 753 mmHg 76%
    22:00 +5°C° 0 mm 2 m/s 753 mmHg 78%
    23:00 +5°C° 0 mm 2 m/s 753 mmHg 81%
    Mostrar mais